Location: Bh?mavarapp?du
(16.7041°N, 80.6518°E)
Time: 07:52:01
(UTC+00:00)

Feng Yun 1-1 Rocket - Pass Details

Date: 21 April 2021
Orbit: 829 x 934 km, 99.2° (Epoch: 06 May)

Event Time Altitude Azimuth Distance (km) Brightness Sun altitude
Rises 13:22:14 0° 169° (SSE) 3,525 7.2 -7.3°
Reaches altitude 10° 13:24:40 10° 170° (S) 2,571 6.5 -7.9°
Maximum altitude 13:30:24 81° 257° (WSW) 897 4.5 -9.2°
Drops below altitude 10° 13:35:59 10° 344° (NNW) 2,505 7.1 -10.5°
Sets 13:38:20 0° 346° (NNW) 3,428 7.8 -11.0°
